Вернуться в каталог

STARLINK-32129

АктивенСвязьVLEO
NORAD 60157·PAYLOAD·🇺🇸 United States

Запущен Jun 27, 2024 с Cape Canaveral Space Force Station

Loading…

Ближайшие Пролёты (ближайшие 24 часа)

TLE

СвежийSource: CelesTrak SupGP

Эпоха: Sep 14, 2026, 20:37 UTC

1 60157C 24120Y   26257.85951389 -.00036887  00000+0 -10893-2 0  2571
2 60157  53.1579 157.9903 0001289  88.1533 317.3001 15.34424155    13

Отслеживайте STARLINK-32129 в реальном времени с AllMySat

Download on the App Store